Location: Jaite
(41.2884°N, 81.5737°W)
Time: 02:02:12
(UTC+00:00)

ACS3 Solar Sail - Pass Details

Date: 14 October 2024
Orbit: 961 x 1022 km, 97.5° (Epoch: 03 November)

Event Time Altitude Azimuth Distance (km) Brightness Sun altitude
Exits shadow 02:07:19 41° 261° (W) 1,446 2.9 -37.5°
Maximum altitude 02:07:27 41° 264° (W) 1,445 2.9 -37.6°
Drops below altitude 10° 02:13:28 10° 334° (NNW) 2,835 4.7 -38.6°
Sets 02:16:10 0° 341° (NNW) 3,790 5.4 -39.0°
